FW5426 Weather Reports


Display with metric or nautical units.
time (UTC)temp
F
wind
direction
speed
MPH
gust
MPH
rain 1hr
in
rain 24hr
in
rain mn
in
humidity
%
barometer
mb
20260506214932 77 226 10.0 21.0 0.00 0.00 0.00 14 1015.3
20260506214639 75 301 13.0 26.0 0.00 0.00 0.00 14 1015.5
20260506214629 76 220 11.0 20.0 0.00 0.00 0.00 14 1015.2
20260506213431 76 306 14.0 26.0 0.00 0.00 0.00 14 1015.3
20260506213155 77 304 11.0 25.0 0.00 0.00 0.00 14 1015.4
20260506212432 77 270 10.0 19.0 0.00 0.00 0.00 14 1015.5
20260506211932 77 242 10.0 20.0 0.00 0.00 0.00 14 1015.5
20260506211432 77 272 9.0 20.0 0.00 0.00 0.00 14 1015.6
20260506210931 76 225 10.0 22.0 0.00 0.00 0.00 14 1015.8
20260506210430 76 279 14.0 29.0 0.00 0.00 0.00 15 1015.8
20260506205931 75 258 14.0 29.0 0.00 0.00 0.00 15 1015.9
20260506205430 75 243 12.0 23.0 0.00 0.00 0.00 15 1016.0
20260506204931 76 246 12.0 19.0 0.00 0.00 0.00 15 1016.1
20260506204432 76 228 10.0 19.0 0.00 0.00 0.00 15 1016.1
20260506204416 76 273 10.0 19.0 0.00 0.00 0.00 15 1016.2
20260506203430 76 244 11.0 24.0 0.00 0.00 0.00 15 1016.2
20260506202931 76 242 11.0 24.0 0.00 0.00 0.00 15 1016.1
20260506202430 76 274 10.0 19.0 0.00 0.00 0.00 15 1016.2
20260506201931 75 243 8.0 16.0 0.00 0.00 0.00 15 1016.1
20260506201433 75 326 11.0 27.0 0.00 0.00 0.00 15 1016.2
20260506200933 75 266 12.0 27.0 0.00 0.00 0.00 14 1016.3
20260506200431 74 252 11.0 19.0 0.00 0.00 0.00 15 1016.2
20260506195931 75 307 11.0 19.0 0.00 0.00 0.00 16 1016.4
20260506195430 74 244 11.0 19.0 0.00 0.00 0.00 16 1016.4
20260506194931 75 273 12.0 24.0 0.00 0.00 0.00 17 1016.4
20260506194431 74 259 11.0 24.0 0.00 0.00 0.00 17 1016.4
20260506193930 74 271 9.0 27.0 0.00 0.00 0.00 18 1016.5
20260506193916 74 313 9.0 27.0 0.00 0.00 0.00 17 1016.7
20260506193158 74 304 11.0 22.0 0.00 0.00 0.00 17 1016.5
20260506192649 74 267 11.0 22.0 0.00 0.00 0.00 17 1016.8
20260506191931 74 259 9.0 16.0 0.00 0.00 0.00 18 1016.7
20260506191430 73 266 10.0 18.0 0.00 0.00 0.00 19 1016.8
20260506190934 73 230 12.0 25.0 0.00 0.00 0.00 20 1016.8
20260506190432 73 268 11.0 25.0 0.00 0.00 0.00 18 1016.9
20260506185932 73 245 9.0 18.0 0.00 0.00 0.00 18 1016.9
20260506185430 73 273 8.0 18.0 0.00 0.00 0.00 19 1017.0
20260506185155 72 246 12.0 23.0 0.00 0.00 0.00 20 1017.0
20260506184430 73 237 13.0 23.0 0.00 0.00 0.00 19 1017.0
20260506183931 73 232 10.0 32.0 0.00 0.00 0.00 19 1016.9
20260506183430 73 242 9.0 32.0 0.00 0.00 0.00 20 1017.1
20260506182931 72 267 8.0 17.0 0.00 0.00 0.00 20 1017.1
20260506182430 72 289 10.0 19.0 0.00 0.00 0.00 20 1017.1
20260506181931 72 265 12.0 20.0 0.00 0.00 0.00 21 1017.1
20260506181654 72 248 12.0 20.0 0.00 0.00 0.00 22 1017.2
20260506180922 71 262 12.0 21.0 0.00 0.00 0.00 20 1017.3
20260506180415 71 241 12.0 24.0 0.00 0.00 0.00 21 1017.4
20260506175909 71 213 11.0 24.0 0.00 0.00 0.00 23 1017.3
20260506175401 71 262 11.0 19.0 0.00 0.00 0.00 22 1017.3
20260506174902 71 259 10.0 19.0 0.00 0.00 0.00 23 1017.3
20260506174402 71 261 9.0 16.0 0.00 0.00 0.00 23 1017.4
20260506173902 70 263 8.0 27.0 0.00 0.00 0.00 24 1017.4
20260506173630 70 283 8.0 27.0 0.00 0.00 0.00 23 1017.3
20260506172902 70 270 8.0 16.0 0.00 0.00 0.00 24 1017.4
20260506172401 70 271 8.0 16.0 0.00 0.00 0.00 24 1017.4
20260506171902 69 223 7.0 16.0 0.00 0.00 0.00 24 1017.4
20260506171623 69 231 7.0 18.0 0.00 0.00 0.00 26 1017.6
20260506170901 69 258 7.0 18.0 0.00 0.00 0.00 26 1017.6
20260506170401 68 311 8.0 16.0 0.00 0.00 0.00 27 1017.6
20260506165901 68 241 9.0 15.0 0.00 0.00 0.00 27 1017.7
20260506165626 69 315 8.0 16.0 0.00 0.00 0.00 27 1017.7
20260506164900 68 271 7.0 16.0 0.00 0.00 0.00 27 1017.7
20260506164401 68 323 8.0 17.0 0.00 0.00 0.00 27 1017.7
20260506163902 68 308 7.0 17.0 0.00 0.00 0.00 27 1017.7
20260506163356 68 266 8.0 20.0 0.00 0.00 0.00 28 1017.7
20260506162850 68 280 9.0 21.0 0.00 0.00 0.00 29 1017.7
20260506162349 67 236 7.0 21.0 0.00 0.00 0.00 29 1017.7
20260506161848 67 320 7.0 17.0 0.00 0.00 0.00 30 1017.7
20260506161610 67 312 8.0 17.0 0.00 0.00 0.00 30 1017.7
20260506160847 67 309 8.0 16.0 0.00 0.00 0.00 31 1017.9
20260506160348 66 281 8.0 19.0 0.00 0.00 0.00 31 1017.8
20260506155848 66 283 8.0 19.0 0.00 0.00 0.00 32 1017.9
20260506155612 66 229 7.0 16.0 0.00 0.00 0.00 31 1017.8
20260506154848 66 323 6.0 16.0 0.00 0.00 0.00 31 1017.9
20260506154348 66 338 6.0 12.0 0.00 0.00 0.00 31 1017.8
20260506153850 66 281 8.0 18.0 0.00 0.00 0.00 31 1017.8
20260506153347 66 304 8.0 18.0 0.00 0.00 0.00 32 1017.8
20260506153110 65 306 8.0 16.0 0.00 0.00 0.00 32 1017.9
20260506152348 65 323 9.0 16.0 0.00 0.00 0.00 32 1017.7
20260506151848 65 278 10.0 18.0 0.00 0.00 0.00 32 1017.8
20260506151348 65 339 8.0 18.0 0.00 0.00 0.00 32 1017.9
20260506151116 65 283 6.0 16.0 0.00 0.00 0.00 32 1017.7
20260506150348 65 227 5.0 15.0 0.00 0.00 0.00 33 1017.7
20260506145847 65 272 5.0 13.0 0.00 0.00 0.00 32 1017.7
20260506145346 65 283 6.0 15.0 0.00 0.00 0.00 32 1017.8
20260506144845 65 320 7.0 15.0 0.00 0.00 0.00 33 1017.7
20260506144346 65 312 7.0 12.0 0.00 0.00 0.00 33 1017.7
20260506143845 64 287 7.0 16.0 0.00 0.00 0.00 33 1017.7
20260506143345 64 309 5.0 16.0 0.00 0.00 0.00 32 1017.7
20260506142846 64 324 4.0 12.0 0.00 0.00 0.00 33 1017.6
20260506142345 64 343 4.0 10.0 0.00 0.00 0.00 33 1017.7
20260506141846 64 273 5.0 10.0 0.00 0.00 0.00 34 1017.7
20260506141349 64 310 5.0 13.0 0.00 0.00 0.00 33 1017.6
20260506140845 64 304 2.0 13.0 0.00 0.00 0.00 33 1017.6
20260506140340 63 25 1.0 4.0 0.00 0.00 0.00 35 1017.6
20260506135839 63 355 2.0 6.0 0.00 0.00 0.00 35 1017.4
20260506135337 63 67 2.0 6.0 0.00 0.00 0.00 35 1017.4
20260506134838 62 14 1.0 5.0 0.00 0.00 0.00 36 1017.4
20260506134338 62 19 2.0 5.0 0.00 0.00 0.00 36 1017.3
20260506133836 62 34 3.0 5.0 0.00 0.00 0.00 36 1017.3
20260506133334 62 53 3.0 6.0 0.00 0.00 0.00 36 1017.3
20260506132834 61 36 3.0 6.0 0.00 0.00 0.00 37 1017.2
20260506132333 61 64 2.0 6.0 0.00 0.00 0.00 37 1017.2
20260506131830 60 52 3.0 6.0 0.00 0.00 0.00 38 1017.3
20260506131329 60 67 4.0 6.0 0.00 0.00 0.00 38 1017.0
20260506130830 60 45 4.0 7.0 0.00 0.00 0.00 39 1017.1
20260506130329 59 51 4.0 9.0 0.00 0.00 0.00 39 1017.0
20260506125830 58 52 4.0 9.0 0.00 0.00 0.00 40 1016.9
20260506125330 58 51 2.0 6.0 0.00 0.00 0.00 41 1016.9
20260506124829 57 44 2.0 5.0 0.00 0.00 0.00 42 1016.9
20260506124553 57 36 3.0 6.0 0.00 0.00 0.00 42 1016.8
20260506123829 57 36 3.0 6.0 0.00 0.00 0.00 42 1016.7
20260506123329 57 43 2.0 6.0 0.00 0.00 0.00 42 1016.5
20260506122829 57 58 2.0 4.0 0.00 0.00 0.00 42 1016.5
20260506122328 57 47 3.0 8.0 0.00 0.00 0.00 42 1016.4
20260506121829 57 51 4.0 8.0 0.00 0.00 0.00 42 1016.3
20260506121330 57 46 2.0 6.0 0.00 0.00 0.00 42 1016.2
20260506120830 57 340 2.0 7.0 0.00 0.00 0.00 41 1016.1
20260506120330 58 34 3.0 7.0 0.00 0.00 0.00 41 1016.1
20260506115830 58 34 4.0 11.0 0.00 0.00 0.00 40 1016.1
20260506115328 58 59 4.0 11.0 0.00 0.00 0.00 40 1016.0
20260506114829 57 74 2.0 8.0 0.00 0.00 0.00 42 1016.0
20260506114329 57 36 2.0 6.0 0.00 0.00 0.00 41 1016.0
20260506113830 58 343 2.0 6.0 0.00 0.00 0.00 41 1016.0
20260506113329 58 55 3.0 9.0 0.00 0.00 0.00 40 1016.0
20260506112829 58 50 3.0 9.0 0.00 0.00 0.00 39 1015.9
20260506112329 59 52 3.0 8.0 0.00 0.00 0.00 38 1015.9
20260506111829 60 64 3.0 8.0 0.00 0.00 0.00 37 1016.0
20260506111811 62 71 5.0 14.0 0.00 0.00 0.00 35 1015.9
20260506110829 62 5 6.0 14.0 0.00 0.00 0.00 34 1015.9
20260506110329 62 308 7.0 12.0 0.00 0.00 0.00 34 1015.8
20260506105830 62 342 6.0 12.0 0.00 0.00 0.00 33 1015.6
20260506105817 62 346 7.0 13.0 0.00 0.00 0.00 33 1015.5
20260506104829 62 5 8.0 13.0 0.00 0.00 0.00 33 1015.4
20260506104329 62 312 8.0 14.0 0.00 0.00 0.00 33 1015.3
20260506103829 62 318 9.0 16.0 0.00 0.00 0.00 33 1015.4
20260506103329 62 332 8.0 20.0 0.00 0.00 0.00 33 1015.3
20260506102829 62 323 8.0 20.0 0.00 0.00 0.00 32 1015.3
20260506102329 62 332 10.0 17.0 0.00 0.00 0.00 32 1015.3
20260506101829 63 324 10.0 17.0 0.00 0.00 0.00 32 1015.2
20260506101329 63 313 10.0 18.0 0.00 0.00 0.00 32 1015.2
20260506100829 63 323 10.0 18.0 0.00 0.00 0.00 32 1015.2
20260506100330 63 310 9.0 18.0 0.00 0.00 0.00 32 1015.1
20260506100311 63 297 10.0 21.0 0.00 0.00 0.00 32 1015.1
20260506095552 63 331 10.0 21.0 0.00 0.00 0.00 31 1015.2
20260506094830 63 321 10.0 20.0 0.00 0.00 0.00 32 1015.0
20260506094329 63 355 11.0 20.0 0.00 0.00 0.00 32 1015.0
20260506093829 63 350 12.0 24.0 0.00 0.00 0.00 31 1015.0
20260506093329 63 302 12.0 24.0 0.00 0.00 0.00 31 1015.0
20260506093058 63 315 10.0 18.0 0.00 0.00 0.00 31 1015.1
20260506092329 63 317 10.0 17.0 0.00 0.00 0.00 31 1014.9
20260506091829 64 321 10.0 17.0 0.00 0.00 0.00 31 1015.0
20260506091329 64 328 10.0 17.0 0.00 0.00 0.00 31 1014.9
20260506090829 64 317 11.0 21.0 0.00 0.00 0.00 31 1014.9
20260506090555 64 331 11.0 21.0 0.00 0.00 0.00 32 1014.9
20260506085829 64 313 9.0 22.0 0.00 0.00 0.00 32 1014.7
20260506085557 64 312 9.0 22.0 0.00 0.00 0.00 33 1014.7
20260506084830 64 336 8.0 15.0 0.00 0.00 0.00 32 1014.7
20260506084329 64 288 8.0 15.0 0.00 0.00 0.00 32 1014.9
20260506083829 64 316 8.0 17.0 0.00 0.00 0.00 32 1014.9
20260506083328 65 337 7.0 17.0 0.00 0.00 0.00 32 1014.9
20260506082829 65 337 8.0 16.0 0.00 0.00 0.00 31 1015.0
20260506082330 65 312 9.0 18.0 0.00 0.00 0.00 30 1014.9
20260506081829 65 315 9.0 18.0 0.00 0.00 0.00 30 1014.7
20260506081545 66 290 12.0 25.0 0.00 0.00 0.00 28 1014.9
20260506081532 65 317 11.0 25.0 0.00 0.00 0.00 29 1014.9
20260506080329 66 299 12.0 18.0 0.00 0.00 0.00 26 1014.7
20260506073328 68 281 13.0 24.0 0.00 0.00 0.00 23 1014.6
20260506072829 68 259 12.0 24.0 0.00 0.00 0.00 22 1014.4
20260506072554 68 241 12.0 26.0 0.00 0.00 0.00 23 1014.4
20260506071830 68 329 13.0 26.0 0.00 0.00 0.00 23 1014.5
20260506071329 68 286 12.0 23.0 0.00 0.00 0.00 23 1014.4
20260506070829 68 276 12.0 23.0 0.00 0.00 0.00 23 1014.5
20260506070329 68 275 11.0 19.0 0.00 0.00 0.00 23 1014.5
20260506070321 67 275 10.0 18.0 0.00 0.00 0.00 23 1014.5
20260506062330 69 279 11.0 18.0 0.00 0.00 0.00 23 1014.4
20260506062049 69 244 11.0 18.0 0.00 0.00 0.00 22 1014.3
20260506061329 69 257 11.0 21.0 0.00 0.00 0.00 22 1014.4
20260506060830 70 244 12.0 21.0 0.00 0.00 0.00 22 1014.4
20260506060553 70 271 11.0 20.0 0.00 0.00 0.00 22 1014.3
20260506051329 70 267 12.0 21.0 0.00 0.00 0.00 21 1014.0
20260506050829 70 275 13.0 21.0 0.00 0.00 0.00 21 1014.0
20260506050556 71 265 12.0 25.0 0.00 0.00 0.00 20 1013.8
20260506044829 71 266 14.0 24.0 0.00 0.00 0.00 19 1013.6
20260506044329 71 244 16.0 25.0 0.00 0.00 0.00 18 1013.5
20260506043827 71 275 14.0 25.0 0.00 0.00 0.00 19 1013.6
20260506043321 71 254 12.0 23.0 0.00 0.00 0.00 19 1013.4
20260506042815 71 284 13.0 26.0 0.00 0.00 0.00 18 1013.3
20260506042309 71 292 15.0 28.0 0.00 0.00 0.00 18 1013.3
20260506042028 72 306 14.0 28.0 0.00 0.00 0.00 17 1013.3
20260506041303 72 266 13.0 23.0 0.00 0.00 0.00 17 1013.3
20260506040804 72 249 14.0 25.0 0.00 0.00 0.00 16 1013.3
20260506040303 72 272 17.0 26.0 0.00 0.00 0.00 16 1013.1
20260506040027 72 256 16.0 27.0 0.00 0.00 0.00 15 1013.1
20260506035305 72 277 13.0 27.0 0.00 0.00 0.00 16 1013.1
20260506034803 72 242 13.0 23.0 0.00 0.00 0.00 16 1012.9
20260506034304 72 246 15.0 24.0 0.00 0.00 0.00 16 1012.9
20260506033803 72 263 15.0 24.0 0.00 0.00 0.00 17 1012.8
20260506033303 73 276 13.0 23.0 0.00 0.00 0.00 17 1012.7
20260506033028 73 258 11.0 22.0 0.00 0.00 0.00 18 1012.6
20260506032526 73 248 10.0 22.0 0.00 0.00 0.00 19 1012.6
20260506031803 73 254 11.0 22.0 0.00 0.00 0.00 19 1012.6
20260506031303 73 297 12.0 22.0 0.00 0.00 0.00 19 1012.6
20260506030803 73 257 12.0 30.0 0.00 0.00 0.00 19 1012.4
20260506030523 73 255 13.0 30.0 0.00 0.00 0.00 18 1012.5
20260506025801 74 277 12.0 27.0 0.00 0.00 0.00 18 1012.4
20260506025522 74 262 12.0 27.0 0.00 0.00 0.00 19 1012.3
20260506024800 74 265 11.0 26.0 0.00 0.00 0.00 19 1012.3
20260506024301 74 224 11.0 18.0 0.00 0.00 0.00 20 1012.3
20260506023801 74 262 9.0 18.0 0.00 0.00 0.00 20 1011.9
20260506023531 74 190 8.0 17.0 0.00 0.00 0.00 21 1011.9
20260506022801 74 261 11.0 21.0 0.00 0.00 0.00 21 1011.9
20260506022305 74 254 11.0 26.0 0.00 0.00 0.00 21 1011.8
20260506021801 74 252 9.0 26.0 0.00 0.00 0.00 20 1011.8
20260506021301 74 276 10.0 24.0 0.00 0.00 0.00 20 1011.8
20260506021028 74 234 14.0 25.0 0.00 0.00 0.00 20 1011.7
20260506020302 74 288 13.0 25.0 0.00 0.00 0.00 19 1011.7
20260506015801 75 229 11.0 20.0 0.00 0.00 0.00 19 1011.7
20260506015520 75 244 11.0 19.0 0.00 0.00 0.00 19 1011.7
20260506014801 75 264 11.0 31.0 0.00 0.00 0.00 19 1011.7
20260506014301 75 256 12.0 31.0 0.00 0.00 0.00 19 1011.5
20260506013801 75 242 11.0 21.0 0.00 0.00 0.00 19 1011.5
20260506013300 75 238 10.0 19.0 0.00 0.00 0.00 19 1011.4
20260506012801 75 248 13.0 27.0 0.00 0.00 0.00 19 1011.4
20260506012307 75 237 14.0 27.0 0.00 0.00 0.00 19 1011.4
20260506012022 75 252 12.0 24.0 0.00 0.00 0.00 19 1011.4
20260506011301 76 238 12.0 21.0 0.00 0.00 0.00 20 1011.4
20260506010801 76 292 13.0 21.0 0.00 0.00 0.00 21 1011.3
20260506010521 76 255 12.0 21.0 0.00 0.00 0.00 21 1011.4
20260506005801 76 217 13.0 26.0 0.00 0.00 0.00 21 1011.1
20260506005301 76 236 15.0 29.0 0.00 0.00 0.00 21 1011.4
20260506004801 76 265 13.0 29.0 0.00 0.00 0.00 22 1011.4
20260506004301 76 196 12.0 26.0 0.00 0.00 0.00 21 1011.3
20260506003801 76 215 12.0 24.0 0.00 0.00 0.00 22 1011.4
20260506003301 76 264 13.0 25.0 0.00 0.00 0.00 22 1011.3
20260506002800 76 246 12.0 25.0 0.00 0.00 0.00 23 1011.3
20260506002300 76 272 12.0 25.0 0.00 0.00 0.00 24 1011.4
20260506001801 76 275 13.0 25.0 0.00 0.00 0.00 24 1011.5
20260506001301 76 250 14.0 26.0 0.00 0.00 0.00 25 1011.4
20260506000801 76 273 11.0 26.0 0.00 0.00 0.00 25 1011.4
20260506000302 76 275 9.0 19.0 0.00 0.00 0.00 25 1011.4
20260505235801 76 267 8.0 17.0 0.00 0.00 0.00 25 1011.4
20260505235304 76 238 6.0 17.0 0.00 0.00 0.00 26 1011.4
20260505234801 76 296 7.0 17.0 0.00 0.00 0.00 26 1011.4
20260505234300 76 252 9.0 20.0 0.00 0.00 0.00 26 1011.3
20260505233801 76 311 9.0 20.0 0.00 0.00 0.00 26 1011.4
20260505233301 76 241 9.0 17.0 0.00 0.00 0.00 26 1011.3
20260505232800 75 279 8.0 17.0 0.00 0.00 0.00 28 1011.3
20260505232301 75 313 9.0 19.0 0.00 0.00 0.00 28 1011.4
20260505231801 76 299 10.0 19.0 0.00 0.00 0.00 28 1011.3
20260505231301 75 219 11.0 24.0 0.00 0.00 0.00 28 1011.5
20260505230801 76 271 10.0 24.0 0.00 0.00 0.00 28 1011.5
20260505230301 76 271 10.0 21.0 0.00 0.00 0.00 28 1011.5
20260505225759 76 294 10.0 21.0 0.00 0.00 0.00 29 1011.6
20260505225259 76 262 8.0 18.0 0.00 0.00 0.00 29 1011.7
20260505224758 75 272 9.0 20.0 0.00 0.00 0.00 30 1011.8
20260505224259 75 276 12.0 21.0 0.00 0.00 0.00 30 1012.2
20260505223755 75 242 13.0 26.0 0.00 0.00 0.00 30 1012.0
20260505223253 75 298 13.0 26.0 0.00 0.00 0.00 30 1012.2
20260505222753 75 291 13.0 24.0 0.00 0.00 0.00 30 1012.0
20260505222253 75 270 12.0 23.0 0.00 0.00 0.00 30 1012.3
20260505221752 75 290 11.0 22.0 0.00 0.00 0.00 30 1012.5
20260505221520 74 309 11.0 21.0 0.00 0.00 0.00 31 1012.4
20260505221017 74 320 13.0 24.0 0.00 0.00 0.00 32 1012.4
20260505220252 74 290 13.0 24.0 0.00 0.00 0.00 31 1012.5
20260505220020 75 288 10.0 22.0 0.00 0.00 0.00 31 1012.5
20260505215243 75 287 8.0 15.0 0.00 0.00 0.00 31 1012.5